Home > Weather > Kuala Lumpur > Past weeks

Flag for Malaysia Weather for the Past 2 Weeks in Kuala Lumpur, Malaysia

Now
81 °F

Partly cloudy.


Feels Like: 86 °F
Forecast: 75 / 92 °F
Wind: 2 mph from Southwest

Location: Sultan Abdul Aziz Shah-Subang

Current Time: Feb 11, 2016 at 4:49:20 AM

Latest Report: Feb 11, 2016 at 4:00 AM


Visibility: 6 mi

Pressure: 29.80 "Hg

Humidity: 84%

Dew point: 75 °F

Location of Kuala LumpurLocation

Historic Weather in Kuala Lumpur — Graph

°F

Kuala Lumpur Temperature Yesterday

Maximum temperature yesterday: 90 °F (at 2:00 PM)
Minimum temperature yesterday: 79 °F (at 6:00 AM)
Average temperature yesterday: 84 °F

High & Low Weather Summary for the Past Weeks

 TemperatureHumidityPressure
High95 °F (Feb 2, 3:00 PM)100% (Jan 30, 4:00 AM)29.92 "Hg (Jan 30, 4:00 AM)
Low75 °F (Feb 4, 4:00 AM)44% (Feb 2, 4:00 PM)29.71 "Hg (Feb 5, 5:00 PM)
Average83 °F79%29.83 "Hg
* Reported Jan 27 3:00 AM — Feb 11 3:00 AM, Kuala Lumpur, Weather by CustomWeather, © 2016

Note: Actual official high and low records may vary slightly from our data, if they occured in-between our weather recording intervals... More about our weather records

Advertising

Kuala Lumpur Weather History for the Previous 24 Hours

 ConditionsComfort  
Time TempWeatherWind HumidityBarometerVisibility
3:00 AM
Thu, Feb 11
81 °FPartly cloudy.1 mph84%29.83 "Hg6 mi
2:00 AM81 °FPassing clouds.No wind84%29.83 "Hg5 mi
1:00 AM82 °FPartly cloudy.3 mph74%29.86 "Hg5 mi
12:00 AM84 °FPartly cloudy.5 mph70%29.86 "Hg5 mi
11:00 PM
Wed, Feb 10
82 °FPassing clouds.2 mph74%29.86 "Hg5 mi
10:00 PM84 °FPassing clouds.2 mph70%29.83 "Hg6 mi
9:00 PM86 °FPartly cloudy.2 mph66%29.86 "Hg6 mi
8:00 PM86 °FBroken clouds.1 mph70%29.83 "Hg6 mi
7:00 PM86 °FBroken clouds.1 mph79%29.80 "HgN/A
6:00 PM90 °FBroken clouds.3 mph55%29.77 "HgN/A
5:00 PM90 °FBroken clouds.3 mph59%29.77 "HgN/A
4:00 PM90 °FBroken clouds.5 mph59%29.80 "HgN/A
3:00 PM90 °FBroken clouds.9 mph59%29.80 "HgN/A
2:00 PM90 °FBroken clouds.3 mph59%29.83 "HgN/A
1:00 PM88 °FBroken clouds.5 mph62%29.86 "HgN/A
12:00 PM86 °FBroken clouds.5 mph62%29.89 "HgN/A
11:00 AM84 °FBroken clouds.3 mph70%29.89 "HgN/A
10:00 AM82 °FBroken clouds.1 mph70%29.89 "HgN/A
9:00 AM81 °FPartly sunny.1 mph74%29.89 "HgN/A
8:00 AM79 °FMostly cloudy.1 mph89%29.86 "Hg5 mi
7:00 AM79 °FPartly cloudy.1 mph89%29.83 "Hg4 mi
6:00 AM79 °FPartly cloudy.1 mph89%29.83 "Hg5 mi
5:00 AM81 °FPassing clouds.No wind84%29.80 "Hg4 mi
4:00 AM81 °FPartly cloudy.No wind89%29.83 "Hg4 mi
Weather by CustomWeather, © 2016

See weather overviewHow to use our weather pages